This is the latest recevied weather packets stored in our database for station/object JA6YCL-13. If no packets are shown the sender has not sent any weather packets the latest 10 day(s).
| Time | Temp. | Humidity | Pressure | Rain* | Wind** | Luminosity | Snow |
|---|---|---|---|---|---|---|---|
| 1777577161 | 15° C | 88% | 1006.4 hPa | 0 mm | - | - | - |
| 1777576286 | 15.56° C | 87% | 1006.2 hPa | 0 mm | - | - | - |
| 1777575425 | 15° C | 89% | 1006.1 hPa | 0 mm | - | - | - |
| 1777574706 | 15° C | 90% | 1005.8 hPa | 0 mm | - | - | - |
| 1777573976 | 15° C | 89% | 1005.6 hPa | 0 mm | - | - | - |
| 1777573127 | 15.56° C | 89% | 1005.3 hPa | 0 mm | - | - | - |
| 1777572321 | 14.44° C | 94% | 1005.3 hPa | 0 mm | - | - | - |
| 1777571446 | 13.89° C | 98% | 1005.2 hPa | 0 mm | - | - | - |
| 1777570551 | 13.33° C | 98% | 1005.2 hPa | 0 mm | - | - | - |
| 1777569825 | 13.33° C | 98% | 1005.3 hPa | 0 mm | - | - | - |
| 1777568936 | 13.33° C | 98% | 1005.8 hPa | 0 mm | - | - | - |
| 1777568161 | 13.33° C | 98% | 1006.1 hPa | 0 mm | - | - | - |
| 1777567288 | 13.33° C | 98% | 1006.3 hPa | 0 mm | - | - | - |
| 1777566544 | 13.33° C | 98% | 1006.3 hPa | 0 mm | - | - | - |
| 1777565684 | 13.33° C | 98% | 1006.8 hPa | 0 mm | - | - | - |
| 1777564851 | 13.33° C | 98% | 1006.7 hPa | 1.78 mm | - | - | - |
| 1777563997 | 13.33° C | 98% | 1007.2 hPa | 0 mm | - | - | - |
| 1777563155 | 13.33° C | 98% | 1007.3 hPa | 1.02 mm | - | - | - |
| 1777562300 | 13.33° C | 98% | 1007.5 hPa | 1.78 mm | - | - | - |
| 1777561476 | 13.33° C | 98% | 1007.6 hPa | 1.27 mm | - | - | - |
| 1777560586 | 13.33° C | 97% | 1007.9 hPa | 1.78 mm | - | - | - |
| 1777559861 | 13.33° C | 97% | 1008 hPa | 0 mm | - | - | - |
| 1777559086 | 13.33° C | 97% | 1008.1 hPa | 1.27 mm | - | - | - |
| 1777558351 | 13.33° C | 97% | 1008.2 hPa | 0 mm | - | - | - |
| 1777557571 | 13.33° C | 97% | 1008.4 hPa | 1.78 mm | - | - | - |
* Rain latest hour (hover to see other rain measurements)
** Current wind speed in m/s (hover to see current wind gust speed)